Regional Weather Roundup
Issued by NWS Memphis, TN

Home | Current Version | Previous Version | Text Only | Print | Product List | Glossary On
Versions: 1 2 3 4 5 6 7 8 9 10 11 12 13 14 15 16 17 18 19 20 21 22 23 24 25 26 27 28 29 30 31 32 33 34 35 36 37 38 39 40 41 42 43 44 45 46 47 48 49 50
000
ASUS44 KMEG 012310
RWRMEG
MEMPHIS CWA HOURLY WEATHER ROUNDUP
NATIONAL WEATHER SERVICE MEMPHIS TN
600 PM CDT WED OCT 01 2014

...WEST TENNESSEE...

CITY           SKY/WX    TMP DP  RH WIND       PRES   REMARKS
MEMPHIS INTL   MOCLDY    85  63  47 S10       29.87F
NWS MEMPHIS      N/A     83 N/A N/A MISG        N/A
JACKSON        PTCLDY    82  63  52 S3        29.89S
LEXINGTON      CLEAR     82  61  47 CALM      29.90S
SAVANNAH       CLEAR     84  55  37 S6        29.92R
DYERSBURG      MOCLDY    82  59  44 CALM      29.89S
UNION CITY     CLEAR     79  63  57 S3        29.89R
PARIS          CLEAR     79  61  53 S3        29.91S
HUNTINGDON     PTCLDY    82  58  43 S3        29.90S


...EASTERN ARKANSAS...

CITY           SKY/WX    TMP DP  RH WIND       PRES   REMARKS
JONESBORO      CLEAR     79  69  71 S12       29.85S
WEST MEMPHIS   PTCLDY    78  74  87 SE5       29.85F
BATESVILLE     CLEAR     82  66  57 S9        29.83S
NEWPORT        PTCLDY    79  70  74 SE10      29.86S
WALNUT RIDGE   PTCLDY    81  63  54 S14G24    29.84R
BLYTHEVILLE    CLEAR     82  68  62 SW10      29.87S
SEARCY         CLEAR     81  73  76 SE7       29.85R
STUTTGART      CLOUDY   N/A N/A N/A E6        29.84S
PINE BLUFF     MOCLDY    82  73  74 CALM      29.82S
MONTICELLO     CLEAR     88  66  48 S9        29.83R HX  90


...NORTH MISSISSIPPI...

CITY           SKY/WX    TMP DP  RH WIND       PRES   REMARKS
TUPELO         CLEAR     84  58  40 S5        29.90S
OXFORD         CLEAR     82  64  54 SE3       29.91S
OLIVE BRANCH   MOCLDY    82  63  51 SE6       29.89S
TUNICA         PTCLDY    82  64  54 E10       29.86F
CLARKSDALE     PTCLDY    86  64  48 SE8       29.86S
CORINTH        CLEAR     84  55  37 S6        29.90S
GRENADA        CLEAR     84  63  48 S5        29.89R
GREENWOOD      CLEAR     87  64  46 SE8       29.87S
COLUMBUS       CLEAR     85  59  40 S5        29.91R
STARKVILLE     FAIR      84  59  42 SE5       29.90S
GOLDEN TRIANGL PTCLDY    84  59  42 E9        29.90R


...SOUTHEAST MISSOURI...

CITY           SKY/WX    TMP DP  RH WIND       PRES   REMARKS
WEST PLAINS    MOCLDY    80  66  62 SE10      29.84F
POPLAR BLUFF   CLOUDY    75  66  73 S6        29.84R
CAPE GIRARDEAU MOCLDY    82  62  50 S10       29.86R


...NORTHWEST ALABAMA...

CITY           SKY/WX    TMP DP  RH WIND       PRES   REMARKS
MUSCLE SHOALS  CLEAR     84  56  38 SE5       29.93S


...MIDDLE TENNESSEE...

CITY           SKY/WX    TMP DP  RH WIND       PRES   REMARKS
NASHVILLE      PTCLDY    83  56  39 SE3       29.93S
CLARKSVILLE    CLEAR     83  57  41 S7        29.90S
COLUMBIA       CLEAR     82  63  51 CALM      29.92S
LEWISBURG      CLEAR     85  60  42 CALM      29.93S


...WESTERN KENTUCKY...

CITY           SKY/WX    TMP DP  RH WIND       PRES   REMARKS
PADUCAH        PTCLDY    83  60  45 S5        29.87R
FORT CAMPBELL  CLEAR     83  56  39 S5        29.91R


...CENTRAL ARKANSAS...

CITY           SKY/WX    TMP DP  RH WIND       PRES   REMARKS
LITTLE ROCK    PTCLDY    86  68  54 S9        29.82S


SKY/WX REPORTED AS FAIR MEANS FEW OR NO CLOUDS BELOW
12 THOUSAND FEET.




USA.gov is the U.S. government's official web portal to all federal, state and local government web resources and services.